Location: Newark
(39.9581°N, 97.2014°W)
Time: 06:32:30
(UTC+00:00)

Envisat - Pass Details

Date: 18 January 2020
Orbit: 764 x 766 km, 98.1° (Epoch: 20 February)

Event Time Altitude Azimuth Distance (km) Brightness Sun altitude
Rises 12:13:53 0° 26° (NNE) 3,239 6.4 -17.7°
Reaches altitude 10° 12:16:38 10° 41° (NE) 2,308 5.8 -17.2°
Maximum altitude 12:20:42 24° 94° (E) 1,549 5.5 -16.5°
Drops below altitude 10° 12:24:45 10° 147° (SSE) 2,294 6.1 -15.7°
Sets 12:27:27 0° 161° (SSE) 3,215 6.7 -15.2°
